GW4466 Weather Reports


Display with metric or nautical units.
time (UTC)temp
F
wind
direction
speed
MPH
gust
MPH
rain 1hr
in
rain 24hr
in
rain mn
in
humidity
%
barometer
mb
20260510130410 66 135 3.0 3.0 0.00 0.00 0.00 88 1013.9
20260510125909 66 135 3.0 3.0 0.00 0.00 0.00 88 1014.2
20260510125409 66 135 3.0 3.0 0.00 0.00 0.00 88 1013.9
20260510124409 63 82 3.0 4.0 0.00 0.00 0.00 96 1013.9
20260510123909 63 82 3.0 4.0 0.00 0.00 0.00 96 1014.2
20260510123409 62 82 3.0 4.0 0.00 0.00 0.00 98 1013.9
20260510121910 61 155 5.0 6.0 0.00 0.00 0.00 97 1013.9
20260510121409 61 155 5.0 6.0 0.00 0.00 0.00 97 1013.9
20260510120909 60 111 3.0 5.0 0.00 0.00 0.00 97 1013.5
20260510120409 60 111 3.0 5.0 0.00 0.00 0.00 97 1013.5
20260510115909 60 113 4.0 5.0 0.00 0.00 0.00 97 1013.5
20260510115409 60 113 4.0 6.0 0.00 0.00 0.00 97 1013.2
20260510114910 60 113 4.0 6.0 0.00 0.00 0.00 97 1013.2
20260510113409 59 152 2.0 4.0 0.00 0.00 0.00 97 1013.5
20260510112909 59 152 2.0 4.0 0.00 0.00 0.00 97 1012.8
20260510105909 60 113 4.0 6.0 0.00 0.00 0.00 97 1012.5
20260510105409 60 113 4.0 6.0 0.00 0.00 0.00 97 1012.5
20260510104909 60 113 4.0 6.0 0.00 0.00 0.00 97 1012.5
20260510103409 61 69 4.0 6.0 0.00 0.00 0.00 97 1012.1
20260510102909 61 69 4.0 6.0 0.00 0.00 0.00 97 1012.1
20260510100409 61 76 3.0 3.0 0.00 0.00 0.00 96 1011.8
20260510095909 61 76 3.0 3.0 0.00 0.00 0.00 96 1011.8
20260510095409 61 76 3.0 3.0 0.00 0.00 0.00 96 1011.8
20260510094909 61 86 3.0 4.0 0.00 0.00 0.00 96 1011.8
20260510094409 61 86 3.0 4.0 0.00 0.00 0.00 96 1011.5
20260510093909 61 49 4.0 5.0 0.00 0.00 0.00 96 1011.8
20260510093409 61 48 3.0 5.0 0.00 0.00 0.00 96 1011.8
20260510092909 62 25 5.0 5.0 0.00 0.00 0.00 95 1011.8
20260510092409 62 6 4.0 5.0 0.00 0.00 0.00 95 1011.8
20260510091910 61 352 3.0 4.0 0.00 0.00 0.00 94 1011.5
20260510091409 61 352 3.0 4.0 0.00 0.00 0.00 94 1011.5
20260510085909 64 29 0.0 3.0 0.00 0.00 0.00 89 1011.5
20260510085409 64 29 0.0 3.0 0.00 0.00 0.00 89 1011.5
20260510084409 64 243 1.0 2.0 0.00 0.00 0.00 91 1011.5
20260510083909 64 243 1.0 3.0 0.00 0.00 0.00 91 1011.5
20260510083409 64 243 1.0 3.0 0.00 0.00 0.00 91 1011.5
20260510082909 64 245 2.0 3.0 0.00 0.00 0.00 91 1011.5
20260510082409 64 264 1.0 3.0 0.00 0.00 0.00 90 1011.5
20260510081909 64 264 1.0 3.0 0.00 0.00 0.00 90 1011.5
20260510081410 64 236 2.0 3.0 0.00 0.00 0.00 90 1011.1
20260510075909 64 89 0.0 1.0 0.00 0.00 0.00 90 1011.1
20260510075409 64 89 0.0 1.0 0.00 0.00 0.00 90 1011.1
20260510074909 64 89 0.0 1.0 0.00 0.00 0.00 90 1011.1
20260510074409 64 95 0.0 1.0 0.00 0.00 0.00 89 1010.8
20260510073909 64 141 0.0 1.0 0.00 0.00 0.00 89 1010.8
20260510073409 64 255 0.0 3.0 0.00 0.00 0.00 90 1010.8
20260510072909 65 231 2.0 3.0 0.00 0.00 0.00 89 1010.8
20260510072409 65 231 2.0 4.0 0.00 0.00 0.00 89 1010.8
20260510071909 65 231 2.0 4.0 0.00 0.00 0.00 89 1010.8
20260510065409 64 155 1.0 2.0 0.00 0.00 0.00 91 1011.1
20260510064909 64 155 1.0 4.0 0.00 0.00 0.00 91 1011.1
20260510064409 64 155 1.0 4.0 0.00 0.00 0.00 91 1011.1
20260510063909 64 166 3.0 4.0 0.00 0.00 0.00 91 1010.8
20260510063409 64 111 2.0 2.0 0.00 0.00 0.00 90 1011.1
20260510062909 64 111 2.0 2.0 0.00 0.00 0.00 90 1010.8
20260510062409 64 142 1.0 2.0 0.00 0.00 0.00 89 1011.1
20260510061909 64 145 1.0 2.0 0.00 0.00 0.00 89 1010.8
20260510061409 65 139 0.0 2.0 0.00 0.00 0.00 88 1010.8
20260510060909 65 141 0.0 2.0 0.00 0.00 0.00 90 1010.8
20260510060408 65 250 0.0 2.0 0.00 0.00 0.00 90 1010.8
20260510054909 65 186 3.0 3.0 0.00 0.00 0.00 89 1010.8
20260510054409 65 186 3.0 4.0 0.00 0.00 0.00 89 1010.8
20260510053909 65 186 3.0 4.0 0.00 0.00 0.00 89 1010.8
20260510053408 65 180 3.0 4.0 0.00 0.00 0.00 89 1010.8
20260510052909 65 180 3.0 5.0 0.00 0.00 0.00 89 1010.8
20260510052409 65 190 5.0 5.0 0.00 0.00 0.00 89 1010.8
20260510051909 65 180 3.0 5.0 0.00 0.00 0.00 88 1011.1
20260510051409 65 180 3.0 5.0 0.00 0.00 0.00 88 1011.1
20260510045909 65 175 4.0 6.0 0.00 0.00 0.00 88 1011.1
20260510045409 65 175 4.0 9.0 0.00 0.00 0.00 88 1010.8
20260510044909 65 175 4.0 9.0 0.00 0.00 0.00 88 1010.8
20260510044409 66 188 5.0 9.0 0.00 0.00 0.00 87 1010.8
20260510043909 66 188 5.0 9.0 0.00 0.00 0.00 87 1010.8
20260510023909 69 180 5.0 5.0 0.00 0.00 0.00 77 1010.8
20260510023409 69 180 5.0 5.0 0.00 0.00 0.00 77 1010.8
20260510022910 69 180 5.0 5.0 0.00 0.00 0.00 77 1010.4
20260510020909 70 174 6.0 6.0 0.00 0.00 0.00 74 1010.1
20260510020409 70 174 6.0 6.0 0.00 0.00 0.00 74 1010.1
20260510005409 74 182 4.0 4.0 0.00 0.00 0.00 65 1008.7
20260510004909 74 182 4.0 6.0 0.00 0.00 0.00 65 1008.7
20260510004409 74 182 4.0 6.0 0.00 0.00 0.00 65 1008.3
20260510003909 74 207 4.0 6.0 0.00 0.00 0.00 63 1008.3
20260510002909 76 168 0.0 5.0 0.00 0.00 0.00 58 1008.3
20260510002409 76 168 0.0 5.0 0.00 0.00 0.00 58 1008.3
20260510001909 76 168 0.0 5.0 0.00 0.00 0.00 58 1008.3
20260510001409 76 154 1.0 4.0 0.00 0.00 0.00 58 1008.0
20260509231909 78 135 2.0 3.0 0.00 0.00 0.00 52 1008.3
20260509231409 78 135 2.0 3.0 0.00 0.00 0.00 52 1008.3
20260509230909 78 135 2.0 3.0 0.00 0.00 0.00 52 1008.0
20260509230409 77 262 1.0 3.0 0.00 0.00 0.00 54 1008.0
20260509225909 77 262 1.0 5.0 0.00 0.00 0.00 54 1007.6
20260509224909 77 234 3.0 5.0 0.00 0.00 0.00 54 1008.0
20260509224409 77 234 3.0 5.0 0.00 0.00 0.00 54 1007.6
20260509223909 77 127 1.0 4.0 0.00 0.00 0.00 55 1007.6
20260509223409 77 127 1.0 4.0 0.00 0.00 0.00 55 1008.0
20260509222909 77 185 3.0 4.0 0.00 0.00 0.00 52 1007.6
20260509222409 77 185 3.0 4.0 0.00 0.00 0.00 52 1008.0
20260509140409 61 222 1.0 7.0 0.00 0.00 0.00 90 1009.0
20260509135909 61 222 1.0 7.0 0.00 0.00 0.00 90 1009.0
20260509131409 59 167 5.0 7.0 0.00 0.00 0.00 94 1008.7
20260509130909 59 167 5.0 10.0 0.00 0.00 0.00 94 1008.7